User: anonymous   Login
Location: Zapote
(9.9191°N, 84.0597°W)
Time: 13:43:51
(UTC-06:00)
Language:

SR - Orbit

View from above orbital plane
View from above orbital plane
View from above satellite
View from above satellite

Ground track
Ground track

The orbit data is extracted from the following two-line orbital elements,

1 00046U 60007B   21059.48079409  .00000060  00000-0  34626-4 0  9992
2 00046  66.6895  74.7074 0216887 299.3978  58.5631 14.49371203176219
Epoch (UTC): 28 February 2021 11:32:20
Eccentricity: 0.0216887
inclination: 66.6895°
perigee height: 573 km
apogee height: 882 km
right ascension of ascending node: 74.7074°
argument of perigee: 299.3978°
revolutions per day: 14.49371203
mean anomaly at epoch: 58.5631°
orbit number at epoch: 17621

The dashed part of the orbit path shows where the satellite is in the earth's shadow,  

DLR